AFL3110 UWKD-USSS

Flight info

Callsign AFL3110
Flight time 1h 2m
Altitude 25000
Route UWKD RIMIP1G RIMIP L94 LOMBI LOMBI6V URSS
Aircraft B77W/H-SDE1E2E3FGHIJ2J3J4J5M1RWXY/LB1D1

Departure

Time 2026-04-27 18:54
Airport Kazan International Airport (UWKD)

Arrival

Time 2026-04-27 19:56
Airport Koltsovo Airport (USSS)
Time Latitude Longitude Altitude Speed Heading
2026-04-27 18:15 55.60634 49.30129 420 ft 0 kts 34°
2026-04-27 18:40 55.60613 49.30104 416 ft 4 kts 36°
2026-04-27 18:40 55.60592 49.30076 409 ft 4 kts 36°
2026-04-27 18:40 55.60570 49.30048 409 ft 4 kts 37°
2026-04-27 18:40 55.60549 49.30020 409 ft 4 kts 39°
2026-04-27 18:41 55.60529 49.29990 409 ft 4 kts 44°
2026-04-27 18:41 55.60514 49.29961 409 ft 3 kts 59°
2026-04-27 18:41 55.60509 49.29938 409 ft 2 kts 91°
2026-04-27 18:41 55.60511 49.29916 409 ft 2 kts 116°
2026-04-27 18:42 55.60517 49.29899 409 ft 2 kts 122°
2026-04-27 18:42 55.60518 49.29895 409 ft 0 kts 122°
2026-04-27 18:44 55.60512 49.29911 409 ft 7 kts 122°
2026-04-27 18:44 55.60507 49.30022 412 ft 10 kts 66°
2026-04-27 18:44 55.60568 49.30074 412 ft 11 kts 341°
2026-04-27 18:44 55.60621 49.29978 411 ft 11 kts 304°
2026-04-27 18:45 55.60664 49.29866 411 ft 11 kts 304°
2026-04-27 18:45 55.60707 49.29752 413 ft 11 kts 304°
2026-04-27 18:45 55.60751 49.29640 412 ft 11 kts 306°
2026-04-27 18:45 55.60795 49.29531 415 ft 10 kts 306°
2026-04-27 18:46 55.60801 49.29422 409 ft 10 kts 239°
2026-04-27 18:46 55.60747 49.29343 413 ft 10 kts 214°
2026-04-27 18:46 55.60688 49.29273 414 ft 10 kts 214°
2026-04-27 18:46 55.60629 49.29203 413 ft 10 kts 214°
2026-04-27 18:47 55.60582 49.29111 409 ft 10 kts 244°
2026-04-27 18:47 55.60578 49.28987 417 ft 10 kts 274°
2026-04-27 18:47 55.60583 49.28862 414 ft 10 kts 274°
2026-04-27 18:47 55.60588 49.28736 417 ft 10 kts 274°
2026-04-27 18:48 55.60600 49.28614 418 ft 10 kts 289°
2026-04-27 18:48 55.60636 49.28504 412 ft 10 kts 303°
2026-04-27 18:48 55.60677 49.28398 415 ft 10 kts 304°
2026-04-27 18:48 55.60725 49.28273 409 ft 19 kts 305°
2026-04-27 18:49 55.60827 49.28010 411 ft 28 kts 304°
2026-04-27 18:49 55.60937 49.27731 413 ft 28 kts 305°
2026-04-27 18:49 55.61045 49.27449 412 ft 28 kts 304°
2026-04-27 18:49 55.61153 49.27168 412 ft 28 kts 305°
2026-04-27 18:50 55.61263 49.26890 411 ft 28 kts 304°
2026-04-27 18:50 55.61372 49.26608 411 ft 28 kts 304°
2026-04-27 18:50 55.61480 49.26327 412 ft 28 kts 304°
2026-04-27 18:50 55.61589 49.26048 413 ft 28 kts 304°
2026-04-27 18:51 55.61697 49.25772 411 ft 27 kts 304°
2026-04-27 18:51 55.61791 49.25528 411 ft 19 kts 304°
2026-04-27 18:51 55.61847 49.25368 415 ft 10 kts 285°
2026-04-27 18:51 55.61819 49.25260 415 ft 11 kts 224°
2026-04-27 18:52 55.61741 49.25159 410 ft 8 kts 213°
2026-04-27 18:52 55.61740 49.25158 411 ft 0 kts 213°
2026-04-27 18:53 55.61659 49.25206 408 ft 10 kts 125°
2026-04-27 18:53 55.61647 49.25237 411 ft 0 kts 125°
2026-04-27 18:53 55.61637 49.25263 405 ft 25 kts 125°
2026-04-27 18:53 55.61303 49.26125 409 ft 143 kts 129°
2026-04-27 18:54 55.60528 49.27908 874 ft 211 kts 124°
2026-04-27 18:54 55.59700 49.30332 2188 ft 237 kts 128°
2026-04-27 18:54 55.58774 49.32870 3530 ft 252 kts 132°
2026-04-27 18:54 55.57744 49.35436 4604 ft 258 kts 133°
2026-04-27 18:55 55.56689 49.38069 5606 ft 266 kts 131°
2026-04-27 18:55 55.55612 49.40783 6668 ft 271 kts 131°
2026-04-27 18:55 55.54730 49.43742 7623 ft 284 kts 108°
2026-04-27 18:55 55.54691 49.47312 8583 ft 298 kts 87°
2026-04-27 18:56 55.55075 49.50904 9641 ft 304 kts 82°
2026-04-27 18:56 55.55589 49.54593 10430 ft 318 kts 80°
2026-04-27 18:56 55.56166 49.58556 10748 ft 348 kts 80°
2026-04-27 18:56 55.56798 49.62887 11102 ft 375 kts 80°
2026-04-27 18:57 55.57455 49.67403 11987 ft 385 kts 80°
2026-04-27 18:57 55.58119 49.72021 13056 ft 390 kts 81°
2026-04-27 18:57 55.58781 49.76690 14127 ft 394 kts 81°
2026-04-27 18:57 55.59444 49.81421 15115 ft 398 kts 82°
2026-04-27 18:58 55.59884 49.84595 15754 ft 402 kts 82°
2026-04-27 18:58 55.60552 49.89435 16690 ft 408 kts 83°
2026-04-27 18:58 55.61226 49.94346 17661 ft 414 kts 83°
2026-04-27 18:58 55.61911 49.99329 18461 ft 420 kts 84°
2026-04-27 18:59 55.62603 50.04402 19190 ft 428 kts 85°
2026-04-27 18:59 55.63372 50.09547 19934 ft 438 kts 81°
2026-04-27 18:59 55.64458 50.14645 20838 ft 446 kts 76°
2026-04-27 18:59 55.65711 50.19680 21888 ft 447 kts 75°
2026-04-27 19:00 55.67016 50.24718 22642 ft 452 kts 76°
2026-04-27 19:00 55.68324 50.29787 22681 ft 452 kts 76°
2026-04-27 19:00 55.69606 50.34851 22678 ft 448 kts 77°
2026-04-27 19:00 55.70852 50.39892 22680 ft 445 kts 77°
2026-04-27 19:01 55.72075 50.44942 22691 ft 444 kts 78°
2026-04-27 19:01 55.73282 50.49991 22697 ft 445 kts 78°
2026-04-27 19:01 55.74487 50.55052 22651 ft 445 kts 79°
2026-04-27 19:01 55.75669 50.60043 22691 ft 445 kts 79°
2026-04-27 19:02 55.76864 50.65113 22691 ft 446 kts 79°
2026-04-27 19:02 55.78061 50.70197 22693 ft 447 kts 79°
2026-04-27 19:02 55.79261 50.75296 22693 ft 447 kts 79°
2026-04-27 19:02 55.80461 50.80406 22689 ft 448 kts 79°
2026-04-27 19:03 55.81662 50.85522 22696 ft 448 kts 79°
2026-04-27 19:03 55.82861 50.90644 22696 ft 448 kts 79°
2026-04-27 19:03 55.84057 50.95769 22685 ft 448 kts 79°
2026-04-27 19:03 55.84846 50.99152 22694 ft 447 kts 79°
2026-04-27 19:04 55.86440 51.05990 22652 ft 446 kts 80°
2026-04-27 19:04 55.87624 51.11090 22683 ft 445 kts 80°
2026-04-27 19:04 55.88803 51.16190 22687 ft 445 kts 80°
2026-04-27 19:04 55.89975 51.21274 22700 ft 444 kts 80°
2026-04-27 19:05 55.91147 51.26369 22709 ft 444 kts 80°
2026-04-27 19:05 55.92319 51.31478 22718 ft 445 kts 80°
2026-04-27 19:05 55.93473 51.36524 22722 ft 445 kts 80°
2026-04-27 19:05 55.94642 51.41641 22712 ft 446 kts 80°
2026-04-27 19:06 55.95810 51.46765 22719 ft 446 kts 80°
2026-04-27 19:06 55.96977 51.51897 22724 ft 446 kts 80°
2026-04-27 19:06 55.98140 51.57021 22662 ft 445 kts 80°
2026-04-27 19:06 55.99298 51.62133 22718 ft 443 kts 81°
2026-04-27 19:07 56.00453 51.67244 22720 ft 443 kts 81°
2026-04-27 19:07 56.01605 51.72359 22715 ft 443 kts 81°
2026-04-27 19:07 56.02729 51.77468 22710 ft 438 kts 83°
2026-04-27 19:07 56.03561 51.82610 22718 ft 425 kts 91°
2026-04-27 19:08 56.04092 51.87756 22731 ft 416 kts 96°
2026-04-27 19:08 56.04323 51.92851 22728 ft 408 kts 101°
2026-04-27 19:08 56.04480 51.97905 22728 ft 408 kts 101°
2026-04-27 19:08 56.04636 52.02987 22718 ft 409 kts 101°
2026-04-27 19:09 56.04795 52.08069 22722 ft 410 kts 101°
2026-04-27 19:09 56.04960 52.13159 22636 ft 410 kts 100°
2026-04-27 19:09 56.05128 52.18256 22668 ft 410 kts 100°
2026-04-27 19:09 56.05297 52.23335 22719 ft 409 kts 100°
2026-04-27 19:10 56.05463 52.28430 22723 ft 410 kts 100°
2026-04-27 19:10 56.05629 52.33529 22731 ft 411 kts 100°
2026-04-27 19:10 56.05791 52.38632 22722 ft 412 kts 100°
2026-04-27 19:10 56.05898 52.42020 22672 ft 412 kts 100°
2026-04-27 19:11 56.06112 52.48893 22743 ft 413 kts 100°
2026-04-27 19:11 56.06271 52.54038 22737 ft 415 kts 100°
2026-04-27 19:11 56.06425 52.59139 22744 ft 416 kts 100°
2026-04-27 19:11 56.06578 52.64306 22746 ft 417 kts 100°
2026-04-27 19:12 56.06721 52.69501 22750 ft 418 kts 100°
2026-04-27 19:12 56.06859 52.74693 22754 ft 418 kts 100°
2026-04-27 19:12 56.06996 52.79907 22755 ft 419 kts 100°
2026-04-27 19:12 56.07131 52.85117 22754 ft 419 kts 100°
2026-04-27 19:13 56.07265 52.90317 22729 ft 418 kts 100°
2026-04-27 19:13 56.07397 52.95522 22758 ft 417 kts 100°
2026-04-27 19:13 56.07528 53.00702 22757 ft 416 kts 100°
2026-04-27 19:13 56.07656 53.05872 22765 ft 415 kts 101°
2026-04-27 19:14 56.07780 53.11037 22756 ft 415 kts 101°
2026-04-27 19:14 56.07901 53.16190 22760 ft 414 kts 101°
2026-04-27 19:14 56.08021 53.21339 22743 ft 413 kts 101°
2026-04-27 19:14 56.08138 53.26474 22777 ft 413 kts 101°
2026-04-27 19:15 56.08254 53.31621 22763 ft 413 kts 101°
2026-04-27 19:15 56.08366 53.36751 22772 ft 413 kts 101°
2026-04-27 19:15 56.08476 53.41894 22754 ft 413 kts 101°
2026-04-27 19:15 56.08586 53.47038 22705 ft 413 kts 100°
2026-04-27 19:16 56.08693 53.52210 22710 ft 418 kts 100°
2026-04-27 19:16 56.08761 53.55674 22767 ft 422 kts 100°
2026-04-27 19:16 56.08897 53.62716 22770 ft 423 kts 100°
2026-04-27 19:16 56.08993 53.67969 22785 ft 421 kts 100°
2026-04-27 19:17 56.09086 53.73207 22786 ft 420 kts 100°
2026-04-27 19:17 56.09175 53.78443 22786 ft 420 kts 100°
2026-04-27 19:17 56.09261 53.83590 22787 ft 419 kts 100°
2026-04-27 19:17 56.09344 53.88808 22785 ft 419 kts 100°
2026-04-27 19:18 56.09427 53.94016 22794 ft 419 kts 100°
2026-04-27 19:18 56.09507 53.99237 22786 ft 419 kts 100°
2026-04-27 19:18 56.09588 54.04449 22809 ft 418 kts 100°
2026-04-27 19:18 56.09663 54.09657 22800 ft 418 kts 101°
2026-04-27 19:19 56.09736 54.14858 22810 ft 418 kts 101°
2026-04-27 19:19 56.09808 54.20070 22759 ft 419 kts 100°
2026-04-27 19:19 56.09879 54.25277 22801 ft 419 kts 100°
2026-04-27 19:19 56.09946 54.30503 22811 ft 420 kts 100°
2026-04-27 19:20 56.10070 54.35764 22820 ft 426 kts 96°
2026-04-27 19:20 56.10471 54.41083 22814 ft 433 kts 92°
2026-04-27 19:20 56.10952 54.46419 22826 ft 435 kts 91°
2026-04-27 19:20 56.11445 54.51774 22789 ft 435 kts 91°
2026-04-27 19:21 56.11934 54.57129 22814 ft 436 kts 91°
2026-04-27 19:21 56.12415 54.62496 22813 ft 436 kts 91°
2026-04-27 19:21 56.12888 54.67869 22824 ft 436 kts 92°
2026-04-27 19:21 56.13354 54.73247 22820 ft 437 kts 92°
2026-04-27 19:22 56.13814 54.78630 22810 ft 436 kts 92°
2026-04-27 19:22 56.14272 54.84004 22745 ft 435 kts 92°
2026-04-27 19:22 56.14725 54.89352 22803 ft 433 kts 92°
2026-04-27 19:22 56.15175 54.94693 22798 ft 433 kts 92°
2026-04-27 19:23 56.15621 55.00029 22801 ft 432 kts 92°
2026-04-27 19:23 56.16063 55.05360 22808 ft 432 kts 92°
2026-04-27 19:23 56.16503 55.10692 22798 ft 431 kts 92°
2026-04-27 19:23 56.16941 55.16018 22804 ft 431 kts 92°
2026-04-27 19:24 56.17377 55.21347 22799 ft 431 kts 92°
2026-04-27 19:24 56.17804 55.26605 22802 ft 431 kts 92°
2026-04-27 19:24 56.18235 55.31935 22797 ft 432 kts 92°
2026-04-27 19:24 56.18666 55.37281 22787 ft 432 kts 92°
2026-04-27 19:25 56.19093 55.42609 22792 ft 432 kts 92°
2026-04-27 19:25 56.19517 55.47943 22761 ft 431 kts 92°
2026-04-27 19:25 56.19940 55.53262 22787 ft 430 kts 92°
2026-04-27 19:25 56.20360 55.58592 22780 ft 431 kts 92°
2026-04-27 19:26 56.20777 55.63921 22794 ft 431 kts 92°
2026-04-27 19:26 56.21191 55.69240 22781 ft 431 kts 92°
2026-04-27 19:26 56.21607 55.74589 22778 ft 431 kts 92°
2026-04-27 19:26 56.22019 55.79913 22797 ft 431 kts 92°
2026-04-27 19:27 56.22429 55.85248 22737 ft 430 kts 92°
2026-04-27 19:27 56.22838 55.90567 22785 ft 429 kts 92°
2026-04-27 19:27 56.23243 55.95879 22784 ft 429 kts 92°
2026-04-27 19:27 56.23645 56.01187 22773 ft 428 kts 92°
2026-04-27 19:28 56.24044 56.06487 22739 ft 428 kts 91°
2026-04-27 19:28 56.24441 56.11793 22792 ft 427 kts 91°
2026-04-27 19:28 56.24834 56.17094 22789 ft 428 kts 91°
2026-04-27 19:28 56.25220 56.22352 22791 ft 429 kts 91°
2026-04-27 19:29 56.25616 56.27752 22797 ft 431 kts 91°
2026-04-27 19:29 56.26001 56.33036 22807 ft 432 kts 91°
2026-04-27 19:29 56.26390 56.38395 22797 ft 433 kts 91°
2026-04-27 19:29 56.26778 56.43774 22800 ft 433 kts 91°
2026-04-27 19:30 56.27165 56.49155 22800 ft 434 kts 91°
2026-04-27 19:30 56.27550 56.54539 22803 ft 433 kts 91°
2026-04-27 19:30 56.27931 56.59918 22802 ft 433 kts 91°
2026-04-27 19:30 56.28308 56.65282 22813 ft 432 kts 91°
2026-04-27 19:31 56.28684 56.70647 22783 ft 432 kts 91°
2026-04-27 19:31 56.29058 56.76012 22816 ft 433 kts 91°
2026-04-27 19:31 56.29428 56.81402 22834 ft 434 kts 91°
2026-04-27 19:31 56.29798 56.86807 22840 ft 435 kts 91°
2026-04-27 19:32 56.30167 56.92221 22835 ft 437 kts 91°
2026-04-27 19:32 56.30535 56.97659 22832 ft 438 kts 91°
2026-04-27 19:32 56.30902 57.03103 22836 ft 439 kts 91°
2026-04-27 19:32 56.31268 57.08555 22848 ft 439 kts 91°
2026-04-27 19:33 56.31633 57.14020 22848 ft 439 kts 91°
2026-04-27 19:33 56.31871 57.17634 22812 ft 439 kts 91°
2026-04-27 19:33 56.32350 57.24924 22852 ft 437 kts 91°
2026-04-27 19:33 56.32705 57.30352 22836 ft 436 kts 90°
2026-04-27 19:34 56.33057 57.35761 22871 ft 434 kts 90°
2026-04-27 19:34 56.33403 57.41161 22873 ft 432 kts 90°
2026-04-27 19:34 56.33742 57.46533 22878 ft 431 kts 90°
2026-04-27 19:34 56.34080 57.51906 22867 ft 430 kts 90°
2026-04-27 19:35 56.34413 57.57263 22880 ft 430 kts 90°
2026-04-27 19:35 56.34745 57.62613 22879 ft 429 kts 90°
2026-04-27 19:35 56.35073 57.67953 22883 ft 429 kts 90°
2026-04-27 19:35 56.35401 57.73300 22899 ft 429 kts 90°
2026-04-27 19:36 56.35720 57.78576 22883 ft 429 kts 90°
2026-04-27 19:36 56.36044 57.83914 22910 ft 429 kts 91°
2026-04-27 19:36 56.36364 57.89277 22910 ft 429 kts 91°
2026-04-27 19:36 56.36679 57.94631 22871 ft 430 kts 90°
2026-04-27 19:37 56.36996 57.99991 22905 ft 429 kts 90°
2026-04-27 19:37 56.37309 58.05281 22888 ft 418 kts 90°
2026-04-27 19:37 56.37612 58.10419 22873 ft 406 kts 90°
2026-04-27 19:37 56.37905 58.15473 22499 ft 403 kts 91°
2026-04-27 19:38 56.38190 58.20488 22108 ft 399 kts 91°
2026-04-27 19:38 56.38470 58.25446 21707 ft 395 kts 90°
2026-04-27 19:38 56.38748 58.30369 21328 ft 392 kts 91°
2026-04-27 19:38 56.39021 58.35244 20924 ft 389 kts 90°
2026-04-27 19:39 56.39290 58.40082 20530 ft 386 kts 90°
2026-04-27 19:39 56.39553 58.44893 20132 ft 384 kts 90°
2026-04-27 19:39 56.39812 58.49687 19731 ft 382 kts 90°
2026-04-27 19:39 56.40068 58.54449 19309 ft 380 kts 90°
2026-04-27 19:40 56.40320 58.59181 18930 ft 378 kts 89°
2026-04-27 19:40 56.40570 58.63884 18548 ft 376 kts 89°
2026-04-27 19:40 56.40814 58.68515 18148 ft 374 kts 89°
2026-04-27 19:40 56.41058 58.73184 17713 ft 373 kts 89°
2026-04-27 19:41 56.41299 58.77834 17284 ft 371 kts 89°
2026-04-27 19:41 56.41541 58.82520 16890 ft 369 kts 89°
2026-04-27 19:41 56.41773 58.87059 16479 ft 367 kts 89°
2026-04-27 19:41 56.42008 58.91694 16093 ft 364 kts 89°
2026-04-27 19:42 56.42235 58.96175 15714 ft 362 kts 89°
2026-04-27 19:42 56.42462 59.00687 15321 ft 360 kts 89°
2026-04-27 19:42 56.42686 59.05185 14949 ft 358 kts 89°
2026-04-27 19:42 56.42906 59.09654 14556 ft 357 kts 89°
2026-04-27 19:43 56.43129 59.12576 14286 ft 354 kts 80°
2026-04-27 19:43 56.44212 59.18213 13790 ft 354 kts 71°
2026-04-27 19:43 56.45138 59.22341 13382 ft 353 kts 71°
2026-04-27 19:43 56.46056 59.26448 12988 ft 352 kts 71°
2026-04-27 19:44 56.46959 59.30551 12603 ft 350 kts 71°
2026-04-27 19:44 56.47547 59.33263 12358 ft 348 kts 72°
2026-04-27 19:44 56.48419 59.37340 11966 ft 347 kts 72°
2026-04-27 19:44 56.49278 59.41397 11593 ft 345 kts 72°
2026-04-27 19:45 56.50129 59.45440 11232 ft 342 kts 72°
2026-04-27 19:45 56.50970 59.49464 10864 ft 341 kts 72°
2026-04-27 19:45 56.51805 59.53468 10503 ft 339 kts 72°
2026-04-27 19:45 56.52628 59.57421 10335 ft 331 kts 73°
2026-04-27 19:46 56.53429 59.61273 10178 ft 322 kts 73°
2026-04-27 19:46 56.54206 59.65020 10041 ft 314 kts 73°
2026-04-27 19:46 56.54964 59.68689 9818 ft 309 kts 72°
2026-04-27 19:46 56.55714 59.72333 9464 ft 308 kts 72°
2026-04-27 19:47 56.56461 59.75957 9141 ft 306 kts 72°
2026-04-27 19:47 56.57201 59.79561 8808 ft 304 kts 72°
2026-04-27 19:47 56.57936 59.83144 8490 ft 302 kts 72°
2026-04-27 19:47 56.58666 59.86712 8179 ft 300 kts 72°
2026-04-27 19:48 56.59391 59.90256 7848 ft 299 kts 73°
2026-04-27 19:48 56.60112 59.93788 7549 ft 298 kts 73°
2026-04-27 19:48 56.60831 59.97305 7242 ft 296 kts 73°
2026-04-27 19:48 56.61535 60.00760 7121 ft 287 kts 73°
2026-04-27 19:49 56.62217 60.04119 6982 ft 279 kts 73°
2026-04-27 19:49 56.62920 60.07384 6777 ft 276 kts 71°
2026-04-27 19:49 56.63651 60.10524 6571 ft 271 kts 70°
2026-04-27 19:49 56.64392 60.13688 6370 ft 266 kts 71°
2026-04-27 19:50 56.65097 60.16712 6161 ft 261 kts 71°
2026-04-27 19:50 56.65802 60.19761 5977 ft 262 kts 71°
2026-04-27 19:50 56.66505 60.22816 5768 ft 262 kts 71°
2026-04-27 19:50 56.67203 60.25851 5557 ft 259 kts 72°
2026-04-27 19:51 56.67890 60.28850 5369 ft 255 kts 71°
2026-04-27 19:51 56.68566 60.31808 5182 ft 252 kts 72°
2026-04-27 19:51 56.69240 60.34764 5006 ft 253 kts 72°
2026-04-27 19:51 56.69973 60.37715 4729 ft 259 kts 68°
2026-04-27 19:52 56.70767 60.40687 4441 ft 263 kts 68°
2026-04-27 19:52 56.71571 60.43686 4147 ft 264 kts 69°
2026-04-27 19:52 56.72369 60.46685 3868 ft 262 kts 69°
2026-04-27 19:52 56.73156 60.49660 3631 ft 259 kts 69°
2026-04-27 19:53 56.74675 60.55430 3050 ft 239 kts 70°
2026-04-27 19:53 56.75105 60.58134 2736 ft 205 kts 99°
2026-04-27 19:53 56.74935 60.60480 2573 ft 178 kts 107°
2026-04-27 19:54 56.74835 60.62720 2495 ft 178 kts 104°
2026-04-27 19:54 56.74750 60.64998 2297 ft 181 kts 103°
2026-04-27 19:54 56.74660 60.67266 1998 ft 175 kts 102°
2026-04-27 19:54 56.74570 60.69419 1755 ft 168 kts 98°
2026-04-27 19:55 56.74487 60.71536 1516 ft 168 kts 98°
2026-04-27 19:55 56.74405 60.73568 1280 ft 153 kts 95°
2026-04-27 19:55 56.74332 60.75441 1072 ft 145 kts 95°
2026-04-27 19:55 56.74258 60.77278 890 ft 145 kts 95°
2026-04-27 19:56 56.74184 60.79070 784 ft 134 kts 94°
2026-04-27 19:56 56.74129 60.80456 783 ft 83 kts 94°
2026-04-27 19:56 56.74099 60.81166 783 ft 30 kts 95°
2026-04-27 19:56 56.74090 60.81393 783 ft 17 kts 93°
2026-04-27 19:57 56.74083 60.81602 783 ft 17 kts 93°
2026-04-27 19:57 56.74076 60.81812 783 ft 17 kts 93°
2026-04-27 19:57 56.74069 60.82012 783 ft 13 kts 94°
2026-04-27 19:57 56.74102 60.82149 783 ft 13 kts 20°
2026-04-27 19:58 56.74193 60.82164 783 ft 13 kts
2026-04-27 19:58 56.74284 60.82176 783 ft 13 kts
2026-04-27 19:58 56.74374 60.82188 783 ft 13 kts
2026-04-27 19:58 56.74450 60.82199 783 ft 11 kts
2026-04-27 19:59 56.74527 60.82203 783 ft 11 kts
2026-04-27 19:59 56.74605 60.82203 783 ft 11 kts
2026-04-27 19:59 56.74659 60.82119 783 ft 12 kts 278°
2026-04-27 19:59 56.74661 60.81968 787 ft 12 kts 270°
2026-04-27 20:00 56.74661 60.81757 782 ft 24 kts 270°
2026-04-27 20:00 56.74661 60.81453 782 ft 24 kts 270°
2026-04-27 20:00 56.74660 60.81154 782 ft 24 kts 270°
2026-04-27 20:00 56.74660 60.80889 782 ft 18 kts 271°
2026-04-27 20:01 56.74662 60.80711 783 ft 4 kts 271°
2026-04-27 20:01 56.74677 60.80662 783 ft 5 kts 324°
2026-04-27 20:01 56.74715 60.80649 783 ft 6 kts 354°
2026-04-27 20:01 56.74759 60.80647 783 ft 6 kts 359°
2026-04-27 20:02 56.74791 60.80647 783 ft 0 kts
2026-04-27 20:03 56.74792 60.80647 783 ft 1 kts
2026-04-27 20:03 56.74811 60.80648 783 ft 4 kts
2026-04-27 20:03 56.74836 60.80633 783 ft 4 kts 321°
2026-04-27 20:04 56.74850 60.80585 783 ft 5 kts 286°
2026-04-27 20:04 56.74853 60.80525 783 ft 5 kts 272°
2026-04-27 20:04 56.74855 60.80455 783 ft 6 kts 272°
2026-04-27 20:04 56.74870 60.80388 783 ft 6 kts 322°
2026-04-27 20:05 56.74916 60.80384 783 ft 7 kts
2026-04-27 20:05 56.74923 60.80384 783 ft 0 kts